Showing default

FIREFLY-2, 62704

Orbit data source: Space-Track

FIREFLY-2, 62704 is a payload satellite owned by Pixxel (IN) in SSO that was launched on Tue, 14 Jan 2025 UTC via an FALCON 9 launch vehicle from the Air Force Western Test Range (AFWTR). Payload-class satellites include a variety of spacecraft equipped with specific instruments for various scientific and technological missions. These include communications satellites like Starlink; space stations such as the ISS; scientific satellites like the Hubble; Earth observation satellites from companies like Planet Labs, Umbra, and HawkEye 360; GPS; miniature CubeSats for education and research; and military/defense satellites.

Loading next visibility...
Identifier
62704, 2025-009CZ
Orbit
SSO
Country
Flag of ININ / IND
Related business
Manufacturer
Pixxel
Mission
Operational Commercial Imaging
Bus & Motor
FIREFLY, Unknown motor
Mass
60 kg wet, 60 kg dry
Launch date (UTC)
2025-01-14 (1 year ago)
Launch vehicle
FALCON 9
Launch site
Air Force Western Test Range (AFWTR)
Object type
Payload
Rocket body
Debris
Shape & HBR
Box + 2 Pan, 0.9 m
Radar Cross Section
0.338 m², Medium (>0.1 m² and < 1m²)

Expand to show TLE details & history
Last TLE update: 5 hours ago

TLE from 5 hours ago
0 FIREFLY-2
1 62704U 25009CZ  26126.57877808  .00001540  00000-0  15457-3 0  9997
2 62704  97.7029 205.3789 0005334 204.3260 155.7709 14.92720377 71117
Epoch: 2026-05-06T13:53Z
TLE epoch observation values (Epoch: 2026-05-06T13:53:26.426Z)
Latitude
0.00006°
Longitude
132.58153°
Altitude
595.892 km
Speed
7.56 km/s
True Right ascension
13h 41m 30s
True Declination
0° 00' 00"
Sunlit
Object was in full shadow at epoch
Visualization orbit readout
Latitude
Unknown
Longitude
Unknown
Altitude
Unknown
Speed
Unknown
Apparent Right ascension
Unknown
Apparent Declination
Unknown
Sunlit
N/A
Visualization observer readout
Local Sidereal Time
03:08:25
Azimuth
Unknown
Elevation
Unknown
Doppler factor
Unknown
Orbital elements
Apogee altitude
590.188 km
Perigee altitude
582.758 km
Semi-major axis
6,964.61 km
Eccentricity
0.00053
Inclination
97.7029°
RAAN
205.3789°
Arg. of periapsis
204.326°
True anomaly
155.79597°
Mean anomaly
155.7709°
Eccentric anomaly
155.78344°
Mean motion
3.7342 °/min
Orbital period
96.41 mins
BSTAR
0.00015457
Loading maneuver chart data...
Computing Atmospheric mass density...
Loading historical data...
Loading historical data...
Loading historical data...
Loading historical data...
Loading historical data...
Loading historical data...
Loading historical data...

Documentation

Showing up to 5 results
|